York, NE

3:21 AM CDT on October 21, 2019 (GMT -0500)
York Municipal

Weather History for KJYR - September, 2019

Change the Weather History Date:

Wednesday, September 18, 2019

  Actual Average Record
Temperature  
Mean Temperature 74 °F -  
Max Temperature 82 °F 79 °F 98 °F (1972)
Min Temperature 66 °F 53 °F 37 °F (1973)
Cooling Degree Days 9    
Growing Degree Days 24 (Base 50)    
Moisture  
Dew Point 67 °F    
Average Humidity 74    
Maximum Humidity 100    
Minimum Humidity 54    
Precipitation  
Precipitation 0.00 in - - ()
Sea Level Pressure  
Sea Level Pressure 29.92 in    
Wind  
Wind Speed 10 mph (SE)    
Max Wind Speed 15 mph    
Max Gust Speed 21 mph    
Visibility 10 miles    
Events      
Averages and records for this station are not official NWS values.
T = Trace of Precipitation, MM = Missing Value Source: NWS Daily Summary

Daily Weather History Graph

Daily Weather History Graph

Search for Another Location

Airport or City:

Astronomy

Sep. 18, 2019 Rise Set
Actual Time 7:13 AM CDT 7:34 PM CDT
Civil Twilight 6:46 AM CDT 8:02 PM CDT
Nautical Twilight 6:14 AM CDT 8:34 PM CDT
Astronomical Twilight 5:40 AM CDT 9:07 PM CDT
Moon 10:07 PM CDT (9/18) 11:19 AM CDT (9/18)
Length of Visible Light 13h 15m
Length of Day
12h 20m
Waning Gibbous, 82% of the Moon is Illuminated
Sep 18
Waning Gibbous
Sep 21
Last Quarter
Sep 28
New
Oct 5
First Quarter
Oct 13
Full

Hourly Weather History & Observations

Time (CDT) Temp. Heat Index Dew Point Humidity Pressure Visibility Wind Dir Wind Speed Gust Speed Precip Events Conditions
12:15 AM 75.2 °F - 64.4 °F 69% 29.87 in 10.0 mi South 13.8 mph 20.7 mph N/A   Clear
12:35 AM 75.2 °F - 64.4 °F 69% 29.87 in 10.0 mi South 15.0 mph 19.6 mph N/A   Clear
12:55 AM 75.2 °F - 66.2 °F 73% 29.88 in 10.0 mi South 12.7 mph - N/A   Clear
1:15 AM 75.2 °F - 66.2 °F 73% 29.88 in 10.0 mi South 13.8 mph 18.4 mph N/A   Clear
1:35 AM 75.2 °F - 66.2 °F 73% 29.88 in 10.0 mi South 15.0 mph - N/A   Clear
1:50 AM 75.2 °F - 66.2 °F 73% 29.89 in 10.0 mi South 12.7 mph - N/A   Clear
2:15 AM 75.2 °F - 66.2 °F 73% 29.88 in 10.0 mi South 12.7 mph - N/A   Clear
2:35 AM 73.4 °F - 66.2 °F 78% 29.89 in 10.0 mi South 12.7 mph - N/A   Clear
2:55 AM 73.4 °F - 66.2 °F 78% 29.89 in 10.0 mi South 11.5 mph - N/A   Clear
3:15 AM 73.4 °F - 66.2 °F 78% 29.88 in 10.0 mi South 12.7 mph - N/A   Clear
3:35 AM 73.4 °F - 66.2 °F 78% 29.88 in 10.0 mi South 11.5 mph - N/A   Clear
3:55 AM 73.4 °F - 66.2 °F 78% 29.88 in 10.0 mi South 12.7 mph 18.4 mph N/A   Clear
4:15 AM 73.4 °F - 66.2 °F 78% 29.88 in 10.0 mi South 13.8 mph - N/A   Clear
4:35 AM 71.6 °F - 66.2 °F 83% 29.88 in 10.0 mi South 12.7 mph 17.3 mph N/A   Clear
4:55 AM 71.6 °F - 66.2 °F 83% 29.87 in 10.0 mi South 12.7 mph - N/A   Clear
5:15 AM 71.6 °F - 66.2 °F 83% 29.88 in 10.0 mi South 11.5 mph - N/A   Clear
5:35 AM 71.6 °F - 66.2 °F 83% 29.87 in 10.0 mi South 12.7 mph 18.4 mph N/A   Clear
5:55 AM 71.6 °F - 66.2 °F 83% 29.88 in 10.0 mi South 10.4 mph - N/A   Clear
6:15 AM 71.6 °F - 66.2 °F 83% 29.89 in 10.0 mi SSW 9.2 mph - N/A   Mostly Cloudy
6:35 AM 71.6 °F - 66.2 °F 83% 29.91 in 10.0 mi SW 5.8 mph 16.1 mph N/A   Mostly Cloudy
6:55 AM 69.8 °F - 66.2 °F 88% 29.92 in 10.0 mi West 4.6 mph - N/A   Mostly Cloudy
7:15 AM 68.0 °F - 66.2 °F 94% 29.93 in 10.0 mi West 3.5 mph - N/A   Partly Cloudy
7:35 AM 66.2 °F - 66.2 °F 100% 29.93 in 10.0 mi Calm Calm - N/A   Partly Cloudy
7:55 AM 68.0 °F - 66.2 °F 94% 29.93 in 10.0 mi Calm Calm - N/A   Clear
8:15 AM 68.0 °F - 66.2 °F 94% 29.93 in 10.0 mi Calm Calm - N/A   Clear
8:35 AM 71.6 °F - 68.0 °F 88% 29.94 in 10.0 mi South 3.5 mph - N/A   Clear
8:55 AM 73.4 °F - 68.0 °F 83% 29.93 in 10.0 mi SSW 4.6 mph - N/A   Clear
9:15 AM 73.4 °F - 68.0 °F 83% 29.94 in 10.0 mi SSW 8.1 mph - N/A   Clear
9:35 AM 75.2 °F - 68.0 °F 78% 29.94 in 10.0 mi SSW 10.4 mph - N/A   Clear
9:55 AM 77.0 °F - 68.0 °F 74% 29.94 in 10.0 mi SW 10.4 mph - N/A   Clear
10:15 AM 77.0 °F - 68.0 °F 74% 29.94 in 10.0 mi SW 12.7 mph 18.4 mph N/A   Clear
10:35 AM 77.0 °F - 68.0 °F 74% 29.94 in 10.0 mi SW 11.5 mph - N/A   Clear
10:55 AM 80.6 °F 83.2 °F 68.0 °F 65% 29.94 in 10.0 mi WSW 8.1 mph - N/A   Clear
11:15 AM 80.6 °F 83.2 °F 68.0 °F 65% 29.94 in 10.0 mi WSW 8.1 mph 16.1 mph N/A   Clear
11:55 AM 82.4 °F 85.4 °F 68.0 °F 62% 29.95 in 10.0 mi Calm Calm - N/A   Clear
12:15 PM 82.4 °F 85.4 °F 68.0 °F 62% 29.95 in 10.0 mi SW 3.5 mph - N/A   Partly Cloudy
12:35 PM 82.4 °F 84.6 °F 66.2 °F 58% 29.95 in 10.0 mi Calm Calm - N/A   Scattered Clouds
12:55 PM 82.4 °F 84.6 °F 66.2 °F 58% 29.95 in 10.0 mi WNW 4.6 mph - N/A   Mostly Cloudy
1:15 PM 82.4 °F 84.6 °F 66.2 °F 58% 29.95 in 10.0 mi Calm Calm - N/A   Partly Cloudy
1:35 PM 80.6 °F 82.7 °F 66.2 °F 61% 29.95 in 10.0 mi North 10.4 mph 18.4 mph N/A   Scattered Clouds
1:55 PM 78.8 °F - 64.4 °F 61% 29.95 in 10.0 mi North 12.7 mph - N/A   Mostly Cloudy
2:15 PM 80.6 °F 82.7 °F 66.2 °F 61% 29.95 in 10.0 mi NNE 10.4 mph - N/A   Mostly Cloudy
2:35 PM 80.6 °F 82.7 °F 66.2 °F 61% 29.95 in 10.0 mi North 11.5 mph - N/A   Scattered Clouds
2:55 PM 82.4 °F 83.9 °F 64.4 °F 54% 29.95 in 10.0 mi North 8.1 mph - N/A   Scattered Clouds
3:15 PM 82.4 °F 83.9 °F 64.4 °F 54% 29.95 in 10.0 mi North 9.2 mph 18.4 mph N/A   Mostly Cloudy
3:35 PM 82.4 °F 84.6 °F 66.2 °F 58% 29.94 in 10.0 mi North 6.9 mph - N/A   Scattered Clouds
3:55 PM 82.4 °F 83.9 °F 64.4 °F 54% 29.94 in 10.0 mi NNE 10.4 mph - N/A   Partly Cloudy
4:15 PM 82.4 °F 84.6 °F 66.2 °F 58% 29.93 in 10.0 mi NNE 8.1 mph - N/A   Clear
4:35 PM 82.4 °F 83.9 °F 64.4 °F 54% 29.93 in 10.0 mi NNE 6.9 mph - N/A   Clear
4:55 PM 82.4 °F 84.6 °F 66.2 °F 58% 29.93 in 10.0 mi North 11.5 mph - N/A   Scattered Clouds
5:15 PM 80.6 °F 82.7 °F 66.2 °F 61% 29.93 in 10.0 mi NE 9.2 mph - N/A   Mostly Cloudy
5:35 PM 80.6 °F 82.7 °F 66.2 °F 61% 29.92 in 10.0 mi NNE 8.1 mph - N/A   Scattered Clouds
5:55 PM 80.6 °F 82.7 °F 66.2 °F 61% 29.92 in 10.0 mi NNE 6.9 mph - N/A   Scattered Clouds
6:15 PM 80.6 °F 82.7 °F 66.2 °F 61% 29.92 in 10.0 mi NNE 8.1 mph - N/A   Scattered Clouds
6:35 PM 78.8 °F - 68.0 °F 69% 29.92 in 10.0 mi NE 6.9 mph - N/A   Scattered Clouds
6:55 PM 78.8 °F - 68.0 °F 69% 29.92 in 10.0 mi NE 5.8 mph - N/A   Partly Cloudy
7:15 PM 77.0 °F - 68.0 °F 74% 29.92 in 10.0 mi Calm Calm - N/A   Clear
7:35 PM 75.2 °F - 68.0 °F 78% 29.92 in 10.0 mi NE 6.9 mph - N/A   Partly Cloudy
7:55 PM 75.2 °F - 68.0 °F 78% 29.93 in 10.0 mi NE 8.1 mph - N/A   Scattered Clouds
8:15 PM 75.2 °F - 68.0 °F 78% 29.93 in 10.0 mi ENE 9.2 mph - N/A   Mostly Cloudy
8:35 PM 75.2 °F - 68.0 °F 78% 29.94 in 10.0 mi ENE 8.1 mph - N/A   Overcast
8:55 PM 75.2 °F - 68.0 °F 78% 29.94 in 10.0 mi ENE 10.4 mph - N/A   Overcast
9:15 PM 75.2 °F - 68.0 °F 78% 29.94 in 10.0 mi ENE 6.9 mph - N/A   Overcast
9:35 PM 75.2 °F - 68.0 °F 78% 29.95 in 10.0 mi ENE 4.6 mph - N/A   Overcast
9:55 PM 73.4 °F - 68.0 °F 83% 29.94 in 10.0 mi ENE 4.6 mph - N/A   Scattered Clouds
10:15 PM 71.6 °F - 68.0 °F 88% 29.95 in 10.0 mi ENE 4.6 mph - N/A   Scattered Clouds
10:35 PM 71.6 °F - 68.0 °F 88% 29.94 in 10.0 mi ESE 3.5 mph - N/A   Scattered Clouds
10:55 PM 71.6 °F - 68.0 °F 88% 29.94 in 10.0 mi SE 3.5 mph - N/A   Clear
11:15 PM 73.4 °F - 68.0 °F 83% 29.94 in 10.0 mi SSE 3.5 mph - N/A   Clear
11:35 PM 73.4 °F - 68.0 °F 83% 29.94 in 10.0 mi South 4.6 mph - N/A   Clear
11:55 PM 73.4 °F - 68.0 °F 83% 29.95 in 10.0 mi Calm Calm - N/A   Clear